[[{"header":{"parameterUnit":"m.s-1","parameterCategory":1,"la1":30.2991,"la2":30.254,"lo1":-89.0895,"lo2":-89.0444,"dy":0.0017,"dx":0.0017,"nx":28,"ny":28,"refTime":"2026-01-11T03:00:00:Z","depth":0,"parameterNumber":2,"parameterNumberName":"U-component_of_WINDS"},"data":[0,0,0,0,0,0,0,0,0,0,0,0,0,0,0,0,0,0,0,0,0,0,0,0,0,0,0,0,0,0,0,0,0,0,0,0,0,0,0,0,0,0,0,0,0,0,0,0,0,0,0,0,0,0,0,0,0,0,-0.6225,-0.6226,0,-0.6302,-0.6303,-0.6303,-0.6297,-0.6296,-0.6294,-0.6293,-0.6373,-0.6377,-0.638,0,0,0,0,0,0,0,0,0,0,0,0,0,-0.6075,-0.6078,-0.6225,-0.6226,-0.6227,-0.6301,-0.6303,-0.6304,-0.6297,-0.6295,-0.6294,-0.6293,-0.6372,-0.6376,-0.638,0,0,0,0,0,0,0,0,0,0,0,0,0,-0.6145,-0.6079,-0.6225,-0.6233,-0.6234,-0.6301,-0.6303,-0.6304,-0.6297,-0.6295,-0.6294,-0.6292,-0.6371,-0.6376,-0.6381,-0.6446,0,0,-0.6395,-0.6397,0,0,0,0,0,0,0,0,-0.6141,-0.615,-0.6231,-0.6232,-0.6234,-0.6288,-0.6279,-0.6351,-0.6298,-0.6273,-0.6293,-0.6291,-0.6347,-0.6353,-0.6372,-0.6449,-0.6453,-0.6396,-0.6399,-0.6401,-0.6402,0,0,0,0,0,0,0,-0.6136,-0.6147,-0.6256,-0.6232,-0.6234,-0.6233,-0.6241,-0.6293,-0.6319,-0.6275,-0.6275,-0.6284,-0.6347,-0.6367,-0.6373,-0.6454,-0.6396,-0.64,-0.6403,-0.6405,-0.6588,-0.659,0,0,0,0,0,0,-0.6129,-0.6143,-0.6253,-0.6258,-0.6182,-0.6237,-0.6246,-0.6272,-0.6318,-0.6324,-0.6285,-0.6283,-0.6359,-0.6368,-0.6376,-0.6455,-0.6401,-0.6405,-0.6408,-0.6586,-0.6588,-0.659,0,0,0,0,0,0,-0.6126,-0.6139,-0.625,-0.62,-0.6214,-0.6241,-0.6271,-0.6275,-0.6295,-0.6326,-0.6331,-0.6301,-0.6358,-0.6369,-0.6428,-0.6457,-0.6408,-0.6412,-0.6584,-0.6587,-0.6589,-0.6612,0,0,0,0,0,0,-0.6122,-0.6138,-0.6163,-0.6201,-0.6217,-0.6301,-0.6273,-0.6278,-0.6303,-0.6301,-0.6342,-0.6347,-0.6358,-0.6421,-0.6433,-0.6463,-0.6416,-0.6581,-0.6585,-0.6588,-0.6609,-0.6616,-0.6621,0,0,0,0,0,-0.6116,-0.6167,-0.6164,-0.6177,-0.6249,-0.6302,-0.6311,-0.6323,-0.6305,-0.633,-0.635,-0.6345,-0.6452,-0.6427,-0.644,-0.6472,-0.6579,-0.6584,-0.6588,-0.6606,-0.6614,-0.6621,0,0,0,0,0,0,-0.6133,-0.6172,-0.6169,-0.6234,-0.6265,-0.6301,-0.6333,-0.6331,-0.6368,-0.6365,-0.6378,-0.6387,-0.6446,-0.6465,-0.6436,-0.6537,-0.6513,-0.6521,-0.6523,-0.6531,-0.6536,-0.6531,-0.642,0,0,0,0,0,-0.6144,-0.6183,-0.6216,-0.627,-0.6285,-0.6306,-0.633,-0.6336,-0.6369,-0.6382,-0.6406,-0.6439,-0.6479,-0.6506,-0.6545,-0.6612,-0.662,-0.664,-0.6646,-0.6651,-0.6657,-0.6693,-0.6702,-0.6605,-0.6605,-0.6605,0,0,-0.6167,-0.6193,-0.6218,-0.6274,-0.6298,-0.6339,-0.6318,-0.6362,-0.6393,-0.6389,-0.6445,-0.6464,-0.6501,-0.6564,-0.6592,-0.6581,-0.6686,-0.6657,-0.666,-0.6664,-0.6699,-0.6708,-0.6716,-0.6608,-0.6607,-0.6607,0,0,-0.6231,-0.6255,-0.6301,-0.6326,-0.6363,-0.6377,-0.6388,-0.6424,-0.6436,-0.6493,-0.6491,-0.6527,-0.6597,-0.6623,-0.6646,-0.6717,-0.6714,-0.673,-0.6762,-0.6797,-0.6804,-0.6811,-0.6836,-0.6845,-0.6736,-0.6736,-0.6736,0,-0.6255,-0.6316,-0.6326,-0.6371,-0.6395,-0.6392,-0.644,-0.6463,-0.6511,-0.6528,-0.6515,-0.6602,-0.6627,-0.6695,-0.6712,-0.673,-0.6743,-0.6725,-0.6802,-0.6809,-0.6816,-0.684,-0.6849,-0.6738,-0.6737,-0.6737,-0.6737,0,-0.6345,-0.6387,-0.642,-0.6466,-0.6494,-0.654,-0.6556,-0.6584,-0.6587,-0.6602,-0.6659,-0.6688,-0.6733,-0.6749,-0.6753,-0.6818,-0.681,-0.6799,-0.6776,-0.6826,-0.6849,-0.6859,-0.674,-0.6739,-0.6739,-0.6738,0,0,-0.6422,-0.647,-0.6483,-0.6503,-0.6542,-0.6576,-0.6621,-0.6664,-0.6686,-0.672,-0.6758,-0.6816,-0.6806,-0.6832,-0.6838,-0.6869,-0.6923,-0.6854,-0.6855,-0.6866,-0.6995,-0.7002,-0.7013,-0.692,-0.6922,-0.6924,-0.6992,0,-0.6489,-0.6569,-0.6578,-0.6649,-0.6688,-0.6685,-0.6725,-0.6754,-0.6768,-0.6804,-0.6821,-0.6862,-0.6846,-0.6861,-0.6891,-0.691,-0.6949,-0.6905,-0.6956,-0.6958,-0.6947,-0.7025,-0.7033,-0.7096,-0.7001,-0.7002,-0.7003,0,-0.6578,-0.6612,-0.6687,-0.672,-0.6737,-0.6772,-0.6811,-0.6845,-0.6878,-0.6886,-0.6914,-0.6916,-0.6963,-0.6937,-0.7001,-0.6971,-0.6993,-0.7005,-0.7008,-0.7013,-0.6984,-0.7032,-0.7116,-0.7126,-0.7017,-0.7016,-0.7015,0,-0.6626,-0.6691,-0.6744,-0.6761,-0.6801,-0.6826,-0.6844,-0.6874,-0.6899,-0.6933,-0.6949,-0.6989,-0.7011,-0.7042,-0.7054,-0.7034,-0.7118,-0.7093,-0.7127,-0.7126,-0.7145,-0.7143,-0.7233,-0.7159,-0.7158,-0.7158,-0.7158,0,-0.67,-0.6746,-0.6766,-0.6798,-0.6849,-0.6859,-0.691,-0.6927,-0.6954,-0.6989,-0.6989,-0.7023,-0.7038,-0.7074,-0.7084,-0.7136,-0.7146,-0.7154,-0.7156,-0.7154,-0.7153,-0.7169,-0.7165,-0.7161,-0.716,-0.716,-0.7159,0,-0.6763,-0.6778,-0.6835,-0.6868,-0.6877,-0.6913,-0.6941,-0.6973,-0.6987,-0.7032,-0.7043,-0.7065,-0.7107,-0.7123,-0.7175,-0.7182,-0.7241,-0.724,-0.723,-0.7231,-0.7263,-0.7259,-0.7366,-0.738,-0.7296,-0.7297,-0.7298,0,-0.6809,-0.6844,-0.688,-0.6903,-0.6922,-0.696,-0.6985,-0.6996,-0.7022,-0.706,-0.7087,-0.7129,-0.7163,-0.723,-0.7251,-0.729,-0.729,-0.7324,-0.7296,-0.7292,-0.729,-0.7288,-0.7291,-0.733,-0.7331,-0.7331,-0.7332,0,-0.6889,-0.6895,-0.693,-0.6968,-0.6997,-0.7027,-0.7057,-0.7076,-0.7092,-0.7121,-0.7163,-0.7189,-0.7241,-0.7282,-0.7322,-0.7341,-0.7339,-0.7341,-0.735,-0.7348,-0.7341,-0.7345,-0.7244,-0.7338,-0.7338,-0.7337,-0.7337,-0.7337,-0.6945,-0.6975,-0.7005,-0.7044,-0.7067,-0.7095,-0.7125,-0.7142,-0.7178,-0.722,-0.7225,-0.727,-0.7301,-0.7354,-0.7374,-0.741,-0.7401,-0.7415,-0.7419,-0.7422,-0.7424,-0.7335,-0.7418,-0.7418,-0.7417,-0.7417,-0.7417,0,-0.7025,-0.7043,-0.7079,-0.712,-0.715,-0.7145,-0.7177,-0.7203,-0.7243,-0.7271,-0.7304,-0.7352,-0.7392,-0.7415,-0.7455,-0.7479,-0.7479,-0.7489,-0.7487,-0.7492,-0.7431,-0.7418,-0.7488,-0.7488,-0.7488,-0.7488,-0.7488,-0.7488,-0.707,-0.7121,-0.713,-0.7192,-0.721,-0.7254,-0.7273,-0.7298,-0.732,-0.7374,-0.7406,-0.7421,-0.7447,-0.7489,-0.7525,-0.753,-0.7545,-0.7556,-0.7561,-0.7503,-0.7496,-0.7489,-0.7477,-0.7559,-0.7559,-0.7619,-0.7619,-0.762]},{"header":{"parameterUnit":"m.s-1","parameterCategory":1,"la1":30.2991,"la2":30.254,"lo1":-89.0895,"lo2":-89.0444,"dy":0.0017,"dx":0.0017,"nx":28,"ny":28,"refTime":"2026-01-11T03:00:00:Z","depth":0,"parameterNumber":3,"parameterNumberName":"V-component_of_WINDS"},"data":[0,0,0,0,0,0,0,0,0,0,0,0,0,0,0,0,0,0,0,0,0,0,0,0,0,0,0,0,0,0,0,0,0,0,0,0,0,0,0,0,0,0,0,0,0,0,0,0,0,0,0,0,0,0,0,0,0,0,-4.0597,-4.0598,0,-4.0684,-4.0685,-4.0686,-4.0635,-4.0632,-4.063,-4.0628,-4.0715,-4.072,-4.0724,0,0,0,0,0,0,0,0,0,0,0,0,0,-4.038,-4.0384,-4.0597,-4.0598,-4.0599,-4.0684,-4.0685,-4.0687,-4.0635,-4.0632,-4.0629,-4.0626,-4.0713,-4.0719,-4.0725,0,0,0,0,0,0,0,0,0,0,0,0,0,-4.0472,-4.0386,-4.0596,-4.0584,-4.0583,-4.0684,-4.0686,-4.0687,-4.0636,-4.0632,-4.0629,-4.0625,-4.0712,-4.0718,-4.0725,-4.0843,0,0,-4.0747,-4.075,0,0,0,0,0,0,0,0,-4.0467,-4.048,-4.0584,-4.0585,-4.0584,-4.0645,-4.0641,-4.0739,-4.0637,-4.0616,-4.0628,-4.0623,-4.0695,-4.0703,-4.0727,-4.0847,-4.0851,-4.0747,-4.0751,-4.0754,-4.0756,0,0,0,0,0,0,0,-4.046,-4.0476,-4.0631,-4.0586,-4.0586,-4.0572,-4.0581,-4.0659,-4.0675,-4.0617,-4.0614,-4.0625,-4.0694,-4.0721,-4.0729,-4.0852,-4.0747,-4.0753,-4.0757,-4.076,-4.107,-4.1073,0,0,0,0,0,0,-4.0455,-4.0471,-4.0628,-4.0634,-4.0515,-4.0579,-4.0589,-4.0629,-4.0674,-4.0677,-4.0628,-4.0622,-4.0711,-4.0721,-4.0732,-4.0871,-4.0754,-4.0761,-4.0765,-4.1066,-4.107,-4.1075,0,0,0,0,0,0,-4.0451,-4.047,-4.0625,-4.0551,-4.057,-4.0587,-4.0632,-4.0633,-4.066,-4.0682,-4.0684,-4.0653,-4.0708,-4.0722,-4.0815,-4.0873,-4.0764,-4.077,-4.1061,-4.1067,-4.1073,-4.1151,0,0,0,0,0,0,-4.0445,-4.0469,-4.0515,-4.0553,-4.0574,-4.0708,-4.0636,-4.0637,-4.0672,-4.0665,-4.0706,-4.0709,-4.0706,-4.0805,-4.0822,-4.0881,-4.0776,-4.1056,-4.1064,-4.1071,-4.1143,-4.1159,-4.1172,0,0,0,0,0,-4.0437,-4.0533,-4.0517,-4.0537,-4.0632,-4.0712,-4.0724,-4.0719,-4.0677,-4.0723,-4.0737,-4.0708,-4.0864,-4.0815,-4.0834,-4.0895,-4.1052,-4.1061,-4.107,-4.1136,-4.1155,-4.1172,0,0,0,0,0,0,-4.0501,-4.0538,-4.0521,-4.0632,-4.0669,-4.0703,-4.0761,-4.074,-4.0789,-4.0781,-4.0772,-4.0782,-4.0878,-4.0896,-4.0841,-4.101,-4.0951,-4.0964,-4.0995,-4.1013,-4.1028,-4.1021,-4.0782,0,0,0,0,0,-4.0528,-4.0591,-4.0619,-4.0714,-4.0734,-4.0744,-4.0779,-4.0772,-4.081,-4.0825,-4.0846,-4.0883,-4.094,-4.0978,-4.1031,-4.1145,-4.1152,-4.1196,-4.1211,-4.1223,-4.1234,-4.1293,-4.1313,-4.1105,-4.1105,-4.1104,0,0,-4.0584,-4.0612,-4.0653,-4.0728,-4.0756,-4.0819,-4.0758,-4.0828,-4.0875,-4.0835,-4.0924,-4.0941,-4.0981,-4.1085,-4.1131,-4.1102,-4.1293,-4.1234,-4.1244,-4.1249,-4.1304,-4.1324,-4.1342,-4.1111,-4.111,-4.1109,0,0,-4.072,-4.0748,-4.0829,-4.0858,-4.0902,-4.0907,-4.0927,-4.0964,-4.0973,-4.1063,-4.1034,-4.1088,-4.1187,-4.1216,-4.1244,-4.1388,-4.1363,-4.1406,-4.1482,-4.1539,-4.1556,-4.157,-4.162,-4.1638,-4.1417,-4.1418,-4.1418,0,-4.0784,-4.088,-4.0874,-4.0946,-4.0979,-4.0946,-4.1027,-4.1056,-4.1114,-4.1137,-4.1104,-4.1226,-4.1251,-4.136,-4.1395,-4.1419,-4.1439,-4.1401,-4.1554,-4.1568,-4.1582,-4.1629,-4.1648,-4.1422,-4.1422,-4.1421,-4.1421,0,-4.0956,-4.1023,-4.1083,-4.114,-4.118,-4.1257,-4.126,-4.1301,-4.129,-4.1299,-4.1389,-4.1418,-4.1476,-4.1501,-4.1491,-4.1608,-4.1588,-4.1555,-4.1496,-4.1607,-4.1651,-4.1669,-4.1429,-4.1428,-4.1426,-4.1425,0,0,-4.1135,-4.1186,-4.1209,-4.1233,-4.1277,-4.1328,-4.1402,-4.1459,-4.1494,-4.1534,-4.1595,-4.1679,-4.1647,-4.1679,-4.1672,-4.1723,-4.1832,-4.1683,-4.1683,-4.1708,-4.196,-4.1985,-4.2006,-4.1816,-4.1819,-4.1822,-4.1956,0,-4.1271,-4.1402,-4.1397,-4.1518,-4.1578,-4.1547,-4.1611,-4.1644,-4.1654,-4.1705,-4.1715,-4.1774,-4.1729,-4.1748,-4.1797,-4.1809,-4.1883,-4.1799,-4.187,-4.1873,-4.1861,-4.2029,-4.2056,-4.2181,-4.1974,-4.1977,-4.1979,0,-4.1449,-4.1495,-4.1622,-4.1656,-4.1681,-4.1739,-4.179,-4.184,-4.1876,-4.1879,-4.1914,-4.1898,-4.197,-4.1909,-4.2008,-4.1951,-4.198,-4.199,-4.1995,-4.2001,-4.1932,-4.2038,-4.2221,-4.224,-4.2006,-4.2004,-4.2002,0,-4.1564,-4.1659,-4.1747,-4.1769,-4.1811,-4.1851,-4.1871,-4.1903,-4.1937,-4.1981,-4.2002,-4.2054,-4.2083,-4.2122,-4.212,-4.2076,-4.222,-4.2159,-4.2223,-4.2223,-4.2254,-4.2252,-4.2443,-4.2275,-4.2274,-4.2274,-4.2274,0,-4.1717,-4.1796,-4.1799,-4.1853,-4.1939,-4.1932,-4.2017,-4.2031,-4.206,-4.2115,-4.2091,-4.2142,-4.2137,-4.2188,-4.2187,-4.2268,-4.2281,-4.2284,-4.2283,-4.2286,-4.2285,-4.2304,-4.2295,-4.2279,-4.2278,-4.2277,-4.2276,0,-4.1861,-4.1867,-4.196,-4.1991,-4.2001,-4.2063,-4.2089,-4.2139,-4.2146,-4.2215,-4.2231,-4.2242,-4.2301,-4.2302,-4.237,-4.2369,-4.2467,-4.2456,-4.2455,-4.2453,-4.2516,-4.251,-4.2725,-4.2752,-4.2567,-4.2569,-4.2571,0,-4.1958,-4.2017,-4.2055,-4.209,-4.2112,-4.2169,-4.2203,-4.2198,-4.2234,-4.2279,-4.2323,-4.238,-4.2425,-4.252,-4.2533,-4.2584,-4.2574,-4.2646,-4.2581,-4.2582,-4.2573,-4.2569,-4.2574,-4.2658,-4.266,-4.2662,-4.2663,0,-4.2128,-4.2128,-4.2179,-4.2231,-4.2272,-4.2313,-4.235,-4.238,-4.2378,-4.242,-4.2481,-4.2516,-4.2584,-4.264,-4.2689,-4.2707,-4.2685,-4.2683,-4.27,-4.2704,-4.2701,-4.2702,-4.2489,-4.2678,-4.2677,-4.2676,-4.2675,-4.2674,-4.2251,-4.2301,-4.2335,-4.2392,-4.242,-4.2455,-4.2503,-4.2515,-4.2566,-4.2622,-4.2615,-4.2682,-4.2714,-4.2777,-4.2799,-4.285,-4.2825,-4.285,-4.2857,-4.2863,-4.2869,-4.2693,-4.2859,-4.2859,-4.2858,-4.2858,-4.2857,0,-4.2419,-4.2439,-4.2491,-4.2544,-4.2588,-4.2564,-4.2603,-4.2641,-4.2701,-4.2733,-4.2778,-4.2846,-4.2899,-4.2916,-4.2967,-4.3005,-4.2995,-4.3018,-4.3015,-4.3019,-4.2889,-4.2868,-4.3025,-4.3025,-4.3025,-4.3025,-4.3025,-4.3025,-4.2512,-4.2595,-4.2599,-4.2695,-4.2714,-4.2779,-4.2804,-4.2835,-4.286,-4.2938,-4.2982,-4.2993,-4.3018,-4.3071,-4.3118,-4.3122,-4.3141,-4.3168,-4.3167,-4.3045,-4.3028,-4.3012,-4.2993,-4.3173,-4.3173,-4.3292,-4.3294,-4.3294]}]]